Location: Zagreb
(45.8000°N, 16.0000°E)
Time: 00:15:21
(UTC+01:00)

Transit 2A Rocket - Pass Details

Date: 03 October 2020
Orbit: 586 x 916 km, 66.7° (Epoch: 28 October)

Event Time Altitude Azimuth Distance (km) Brightness Sun altitude
Rises 22:07:08 0° 325° (NW) 3,500 9.3 -36.3°
Reaches altitude 10° 22:12:19 10° 3° (N) 2,485 8.0 -37.0°
Maximum altitude 22:13:30 11° 15° (NNE) 2,422 7.8 -37.2°
Enters shadow 22:13:35 11° 16° (NNE) 2,421 7.8 -37.2°
Drops below altitude 10° 22:14:41 10° 28° (NNE) 2,443 - -37.3°
Sets 22:19:32 0° 66° (ENE) 3,272 - -38.0°
